Location: Kumla
(59.1265°N, 15.1401°E)
Time: 17:39:14
(UTC+01:00)

A-11 Canister half - Pass Details

Date: 06 December 2023
Orbit: 1526 x 1682 km, 47.3° (Epoch: 24 February)

Event Time Altitude Azimuth Distance (km) Brightness Sun altitude
Rises 16:46:50 0° 172° (S) 4,919 11.9 -11.5°
Reaches altitude 10° 16:53:04 10° 144° (SE) 3,941 11.0 -12.2°
Maximum altitude 16:56:04 12° 126° (SE) 3,804 10.8 -12.5°
Drops below altitude 10° 16:59:05 10° 108° (ESE) 3,939 10.7 -12.9°
Enters shadow 17:00:33 - 100° (E) 4,098 10.7 -13.1°
Sets 17:05:15 0° 80° (E) 4,912 - -13.6°
